KB0Y Weather Reports


time (UTC)temp
F
wind
direction
speed
knots
gust
knots
rain 1hr
in
rain 24hr
in
rain mn
in
humidity
%
barometer
mb
20260906131607 81 329 0.9 2.6 0.00 0.00 0.00 95 1017.2
20260906131102 80 328 0.0 2.6 0.00 0.00 0.00 95 1017.2
20260906130556 80 208 3.5 4.3 0.00 0.00 0.00 95 1017.2
20260906130052 79 188 0.9 2.6 0.00 0.00 0.00 94 1017.2
20260906125548 79 342 0.0 0.0 0.00 0.00 0.00 94 1017.2
20260906125043 78 178 0.0 0.0 0.00 0.00 0.00 94 1017.2
20260906124538 78 291 0.0 2.6 0.00 0.00 0.00 94 1017.2
20260906124033 77 177 0.0 0.0 0.00 0.00 0.00 95 1017.2
20260906123532 77 188 2.6 4.3 0.00 0.00 0.00 95 1017.6
20260906123027 77 177 0.9 2.6 0.00 0.00 0.00 96 1017.6
20260906122521 77 346 0.0 2.6 0.00 0.00 0.00 96 1017.2
20260906122018 76 346 0.0 0.0 0.00 0.00 0.00 96 1017.2
20260906121513 76 345 0.0 0.0 0.00 0.00 0.00 96 1017.2
20260906121010 76 189 0.0 2.6 0.00 0.00 0.00 96 1017.2
20260906120504 76 342 0.0 2.6 0.00 0.00 0.00 96 1017.2
20260906120001 76 187 0.0 0.0 0.00 0.00 0.00 96 1016.9
20260906115455 75 346 0.0 0.0 0.00 0.00 0.00 96 1016.9
20260906114950 75 327 0.0 0.0 0.00 0.00 0.00 96 1016.9
20260906114445 75 344 0.0 0.0 0.00 0.00 0.00 96 1016.9
20260906113941 75 346 0.0 2.6 0.00 0.00 0.00 96 1016.9
20260906113439 75 345 0.0 0.0 0.00 0.00 0.00 96 1016.6
20260906112935 75 345 0.0 0.0 0.00 0.00 0.00 96 1016.9
20260906112430 75 182 0.0 0.0 0.00 0.00 0.00 96 1016.6
20260906111926 75 179 0.0 0.0 0.00 0.00 0.00 96 1016.6
20260906111425 75 179 0.0 0.0 0.00 0.00 0.00 96 1016.6
20260906110920 75 178 0.0 0.0 0.00 0.00 0.00 96 1016.6
20260906110416 75 178 0.0 0.0 0.00 0.00 0.00 96 1016.6
20260906105915 75 179 0.0 0.0 0.00 0.00 0.00 96 1016.6
20260906105411 75 345 0.0 0.0 0.00 0.00 0.00 95 1016.6
20260906104907 75 345 0.0 0.0 0.00 0.00 0.00 95 1016.2
20260906104405 75 345 0.0 0.0 0.00 0.00 0.00 95 1016.2
20260906103904 75 183 0.0 0.0 0.00 0.00 0.00 95 1016.2
20260906103402 75 179 0.0 0.0 0.00 0.00 0.00 95 1015.9
20260906102858 75 179 0.0 0.0 0.00 0.00 0.00 95 1015.9
20260906102357 75 179 0.0 0.0 0.00 0.00 0.00 95 1015.9
20260906101852 75 179 0.0 0.0 0.00 0.00 0.00 95 1015.9
20260906101347 75 179 0.9 2.6 0.00 0.00 0.00 95 1015.9
20260906100843 75 179 0.0 2.6 0.00 0.00 0.00 95 1015.9
20260906100342 75 180 0.0 0.0 0.00 0.00 0.00 95 1015.9
20260906095837 76 179 0.0 0.0 0.00 0.00 0.00 95 1015.9
20260906095333 76 179 0.0 0.0 0.00 0.00 0.00 95 1016.2
20260906094832 76 180 0.0 0.0 0.00 0.00 0.00 95 1016.2
20260906094327 76 179 0.0 0.0 0.00 0.00 0.00 95 1015.9
20260906093824 76 180 0.0 0.0 0.00 0.00 0.00 95 1015.9
20260906093319 76 180 0.0 0.0 0.00 0.00 0.00 95 1015.9
20260906092813 76 181 0.0 0.0 0.00 0.00 0.00 95 1015.9
20260906092308 76 179 0.0 0.0 0.00 0.00 0.00 95 1015.9
20260906091804 76 179 0.0 0.0 0.00 0.00 0.00 95 1015.9
20260906091300 76 179 0.0 0.0 0.00 0.00 0.00 95 1015.9
20260906090756 76 179 0.0 0.0 0.00 0.00 0.00 95 1015.9
20260906090255 76 180 0.0 0.0 0.00 0.00 0.00 95 1015.6
20260906085755 76 179 0.0 0.0 0.00 0.00 0.00 95 1015.6
20260906085254 76 179 0.0 0.0 0.00 0.00 0.00 95 1015.9
20260906084749 76 179 0.0 0.0 0.00 0.00 0.00 94 1015.6
20260906084248 76 181 0.0 0.0 0.00 0.00 0.00 94 1015.6
20260906083743 76 181 0.0 0.0 0.00 0.00 0.00 94 1015.6
20260906083239 76 184 0.0 0.0 0.00 0.00 0.00 94 1015.6
20260906082734 76 331 0.0 0.0 0.00 0.00 0.00 94 1015.6
20260906082229 76 254 0.0 0.0 0.00 0.00 0.00 94 1015.6
20260906081725 76 345 0.0 0.0 0.00 0.00 0.00 94 1015.6
20260906081220 76 344 0.0 0.0 0.00 0.00 0.00 94 1015.6
20260906080716 76 334 0.0 0.0 0.00 0.00 0.00 94 1015.9
20260906080212 76 336 0.0 0.0 0.00 0.00 0.00 94 1015.6
20260906075706 76 335 0.0 0.0 0.00 0.00 0.00 94 1015.6
20260906075201 76 340 0.0 0.0 0.00 0.00 0.00 95 1015.6
20260906074656 76 344 0.0 0.0 0.00 0.00 0.00 95 1015.6
20260906074155 76 343 0.0 0.0 0.00 0.00 0.00 95 1015.6
20260906073650 76 329 0.0 0.0 0.00 0.00 0.00 95 1015.6
20260906073145 76 184 0.0 0.0 0.00 0.00 0.00 95 1015.6
20260906072641 76 180 0.0 0.0 0.00 0.00 0.00 95 1015.6
20260906072136 76 180 0.0 0.0 0.00 0.00 0.00 94 1015.9
20260906071633 76 180 0.0 0.0 0.00 0.00 0.00 94 1015.9
20260906071132 76 180 0.0 0.0 0.00 0.00 0.00 94 1015.9
20260906070629 76 184 0.0 0.0 0.00 0.00 0.00 94 1015.9
20260906070125 76 343 0.0 0.0 0.00 0.00 0.00 94 1015.6
20260906065624 77 315 0.0 0.0 0.00 0.00 0.00 94 1015.9
20260906065120 77 342 0.0 0.0 0.00 0.00 0.00 94 1015.9
20260906064615 77 344 0.0 0.0 0.00 0.00 0.00 94 1015.9
20260906064110 77 344 0.0 0.0 0.00 0.00 0.00 94 1015.9
20260906063605 77 344 0.9 2.6 0.00 0.00 0.00 94 1016.2
20260906063101 77 209 0.0 0.0 0.00 0.00 0.00 94 1015.9
20260906062557 77 180 0.0 0.0 0.00 0.00 0.00 94 1015.9
20260906062055 77 181 0.0 0.0 0.00 0.00 0.00 94 1016.2
20260906061552 77 344 0.0 0.0 0.00 0.00 0.00 94 1016.2
20260906061051 77 344 0.0 0.0 0.00 0.00 0.00 94 1016.2
20260906060548 77 340 0.0 2.6 0.00 0.00 0.00 94 1016.2
20260906060045 77 182 0.0 0.0 0.00 0.00 0.00 94 1016.2
20260906055540 77 180 0.0 0.0 0.00 0.00 0.00 94 1016.2
20260906055036 77 181 0.0 0.0 0.00 0.00 0.00 94 1016.2
20260906054536 77 180 0.0 0.0 0.00 0.00 0.00 94 1016.2
20260906054031 77 181 0.0 2.6 0.00 0.00 0.00 94 1016.2
20260906053527 77 180 0.0 0.0 0.00 0.00 0.00 94 1016.2
20260906053023 78 180 0.0 0.0 0.00 0.00 0.00 94 1016.2
20260906052518 78 185 0.0 0.0 0.00 0.00 0.00 94 1016.2
20260906052015 78 182 0.0 0.0 0.00 0.00 0.00 94 1016.2
20260906051511 78 181 0.0 0.0 0.00 0.00 0.00 94 1016.2
20260906051006 78 199 0.0 0.0 0.00 0.00 0.00 94 1016.2
20260906050506 78 194 0.0 0.0 0.00 0.00 0.00 94 1016.2
20260906050000 78 185 0.0 0.0 0.00 0.00 0.00 94 1016.2
20260906045459 78 180 0.0 0.0 0.00 0.00 0.00 94 1016.2
20260906044955 78 181 0.0 0.0 0.00 0.00 0.00 94 1016.2
20260906044449 78 182 0.0 0.0 0.00 0.00 0.00 94 1016.6
20260906043946 78 184 0.0 0.0 0.00 0.00 0.00 94 1016.2
20260906043441 78 181 0.0 0.0 0.00 0.00 0.00 94 1016.2
20260906042937 78 183 0.0 0.0 0.00 0.00 0.00 94 1016.2
20260906042436 78 184 0.0 0.0 0.00 0.00 0.00 94 1016.6
20260906041931 79 192 0.0 0.0 0.00 0.00 0.00 94 1016.6
20260906041427 79 181 0.0 0.0 0.00 0.00 0.00 93 1016.2
20260906040927 79 180 0.0 0.0 0.00 0.00 0.00 94 1016.2
20260906040422 79 180 0.0 0.0 0.00 0.00 0.00 93 1016.6
20260906035917 79 181 0.0 0.0 0.00 0.00 0.00 93 1016.6
20260906035412 79 180 0.0 0.0 0.00 0.00 0.00 93 1016.6
20260906034908 79 181 0.0 0.0 0.00 0.00 0.00 93 1016.6
20260906034402 79 180 0.9 2.6 0.00 0.00 0.00 93 1016.6
20260906033858 79 181 0.0 0.0 0.00 0.00 0.00 93 1016.9
20260906033357 79 181 0.0 0.0 0.00 0.00 0.00 93 1016.9
20260906032854 79 180 0.0 0.0 0.00 0.00 0.00 93 1017.2
20260906032349 79 181 0.0 0.0 0.00 0.00 0.00 93 1017.2
20260906031844 80 181 0.0 0.0 0.00 0.00 0.00 93 1016.9
20260906031339 80 182 0.0 0.0 0.00 0.00 0.00 93 1017.2
20260906030839 80 181 0.0 0.0 0.00 0.00 0.00 93 1017.2
20260906030335 80 182 0.9 2.6 0.00 0.00 0.00 93 1017.6
20260906025829 80 181 0.0 2.6 0.00 0.00 0.00 92 1017.6
20260906025323 80 181 0.0 0.0 0.00 0.00 0.00 92 1017.6
20260906024822 80 182 0.0 0.0 0.00 0.00 0.00 92 1017.2
20260906024321 80 182 0.0 0.0 0.00 0.00 0.00 92 1017.2
20260906023817 80 184 0.0 0.0 0.00 0.00 0.00 92 1017.2
20260906023312 80 183 0.0 0.0 0.00 0.00 0.00 92 1017.6
20260906022808 80 183 0.0 0.0 0.00 0.00 0.00 92 1017.2
20260906022306 80 183 0.0 0.0 0.00 0.00 0.00 92 1017.2
20260906021759 80 182 0.0 0.0 0.00 0.00 0.00 92 1017.2
20260906021258 81 182 0.0 0.0 0.00 0.00 0.00 92 1017.2
20260906020753 81 183 0.0 0.0 0.00 0.00 0.00 92 1016.9
20260906020253 81 182 0.0 0.0 0.00 0.00 0.00 92 1016.6
20260906015753 81 182 0.9 2.6 0.00 0.00 0.00 92 1016.6
20260906015251 81 182 0.0 0.0 0.00 0.00 0.00 92 1016.6
20260906014746 81 182 0.0 0.0 0.00 0.00 0.00 92 1016.6
20260906014242 81 184 0.0 0.0 0.00 0.00 0.00 92 1016.6
20260906013738 81 183 0.0 0.0 0.00 0.00 0.00 92 1016.6
20260906013237 81 183 0.9 2.6 0.00 0.00 0.00 92 1016.2
20260906012733 81 183 0.0 0.0 0.00 0.00 0.00 92 1016.2
20260906012228 82 184 0.0 2.6 0.00 0.00 0.00 92 1016.2
20260906011723 82 184 0.9 2.6 0.00 0.00 0.00 92 1015.9
20260906011223 82 186 0.0 0.0 0.00 0.00 0.00 92 1015.9
20260906010718 82 185 0.0 0.0 0.00 0.00 0.00 92 1015.9
20260906010214 82 186 0.0 0.0 0.00 0.00 0.00 92 1015.6
20260906005709 82 185 1.7 2.6 0.00 0.00 0.00 92 1015.6
20260906005209 82 185 0.9 2.6 0.00 0.00 0.00 92 1015.6
20260906004707 83 185 1.7 2.6 0.00 0.00 0.00 92 1015.6
20260906004203 83 186 0.0 0.0 0.00 0.00 0.00 92 1015.6
20260906003658 83 186 0.9 2.6 0.00 0.00 0.00 91 1015.6
20260906003153 83 185 1.7 2.6 0.00 0.00 0.00 91 1015.2
20260906002648 83 192 0.9 2.6 0.00 0.00 0.00 91 1015.6
20260906002143 83 189 0.0 2.6 0.00 0.00 0.00 91 1015.6
20260906001638 84 186 0.0 0.0 0.00 0.00 0.00 91 1015.6
20260906001138 84 186 0.9 2.6 0.00 0.00 0.00 91 1015.2
20260906000633 84 185 2.6 4.3 0.00 0.00 0.00 90 1015.2
20260906000129 84 186 0.9 2.6 0.00 0.00 0.00 90 1014.9
20260905235627 85 185 0.9 2.6 0.00 0.00 0.00 90 1014.9
20260905235123 85 185 0.9 2.6 0.00 0.00 0.00 89 1015.2
20260905234618 85 185 1.7 2.6 0.00 0.00 0.00 88 1015.2
20260905234114 86 184 0.0 0.0 0.00 0.00 0.00 88 1015.2
20260905233608 86 184 2.6 4.3 0.00 0.00 0.00 87 1015.2
20260905233102 86 183 3.5 4.3 0.00 0.00 0.00 86 1014.9
20260905232558 87 184 2.6 4.3 0.00 0.00 0.00 85 1015.2
20260905232053 87 183 3.5 4.3 0.00 0.00 0.00 85 1014.9
20260905231548 87 183 4.3 6.1 0.00 0.00 0.00 84 1015.2
20260905231045 88 183 3.5 4.3 0.00 0.00 0.00 83 1015.2
20260905230544 88 182 5.2 6.1 0.00 0.00 0.00 82 1015.2
20260905230043 89 185 2.6 4.3 0.00 0.00 0.00 81 1014.9
20260905225537 89 183 2.6 2.6 0.00 0.00 0.00 80 1015.6
20260905225032 90 183 2.6 4.3 0.00 0.00 0.00 79 1015.6
20260905224532 91 184 0.9 2.6 0.00 0.00 0.00 78 1015.6
20260905224032 91 183 3.5 4.3 0.00 0.00 0.00 76 1015.6
20260905223530 92 185 1.7 4.3 0.00 0.00 0.00 75 1015.6
20260905223025 92 183 1.7 2.6 0.00 0.00 0.00 74 1015.6
20260905222525 92 185 0.9 2.6 0.00 0.00 0.00 73 1015.6
20260905222020 92 184 0.9 2.6 0.00 0.00 0.00 73 1015.6
20260905221517 93 184 2.6 4.3 0.00 0.00 0.00 71 1015.9
20260905221013 93 184 5.2 6.1 0.00 0.00 0.00 71 1015.6
20260905220508 93 184 6.1 6.1 0.00 0.00 0.00 73 1015.6
20260905220003 93 184 2.6 4.3 0.00 0.00 0.00 73 1015.6
20260905215458 93 184 1.7 2.6 0.00 0.00 0.00 72 1015.9
20260905214954 93 184 2.6 4.3 0.00 0.00 0.00 71 1015.9
20260905214450 93 185 4.3 6.1 0.00 0.00 0.00 72 1015.9
20260905213950 93 184 3.5 4.3 0.00 0.00 0.00 73 1016.2
20260905213446 93 187 0.0 0.0 0.00 0.00 0.00 73 1015.9
20260905212941 94 186 2.6 4.3 0.00 0.00 0.00 73 1015.9
20260905212436 94 185 0.0 2.6 0.00 0.00 0.00 72 1015.9
20260905211935 94 185 4.3 4.3 0.00 0.00 0.00 74 1015.6
20260905211431 95 188 6.1 6.1 0.00 0.00 0.00 69 1015.6
20260905210927 95 185 2.6 4.3 0.00 0.00 0.00 71 1015.9
20260905210426 94 186 0.0 0.0 0.00 0.00 0.00 69 1015.9
20260905205926 94 186 7.8 8.7 0.00 0.00 0.00 68 1015.9
20260905205421 93 338 0.9 2.6 0.00 0.00 0.00 67 1015.9
20260905204920 93 191 0.0 0.0 0.00 0.00 0.00 66 1015.6
20260905204416 93 185 4.3 4.3 0.00 0.00 0.00 69 1015.9
20260905203915 92 316 0.0 0.0 0.00 0.00 0.00 68 1015.6
20260905203411 92 184 0.0 0.0 0.00 0.00 0.00 71 1015.9
20260905202906 92 255 1.7 2.6 0.00 0.00 0.00 74 1015.9
20260905202401 92 217 0.9 2.6 0.00 0.00 0.00 73 1015.9
20260905201856 92 318 0.0 0.0 0.00 0.00 0.00 73 1015.9
20260905201352 91 332 3.5 4.3 0.00 0.00 0.00 75 1015.9
20260905200846 91 335 2.6 4.3 0.00 0.00 0.00 73 1015.9
20260905200342 91 187 3.5 4.3 0.00 0.00 0.00 71 1015.9
20260905195840 91 334 0.0 2.6 0.00 0.00 0.00 73 1016.2
20260905195335 91 338 5.2 6.1 0.00 0.00 0.00 73 1016.2
20260905194831 91 332 0.0 0.0 0.00 0.00 0.00 74 1016.2
20260905194331 90 337 1.7 2.6 0.00 0.00 0.00 74 1016.2
20260905193830 90 327 7.0 8.7 0.00 0.00 0.00 72 1015.9
20260905193325 90 187 2.6 4.3 0.00 0.00 0.00 72 1016.2
20260905192821 90 186 0.0 0.0 0.00 0.00 0.00 73 1016.6
20260905192317 89 323 0.9 2.6 0.00 0.00 0.00 73 1016.2
20260905191815 89 337 3.5 4.3 0.00 0.00 0.00 77 1016.6
20260905191314 89 338 5.2 6.1 0.00 0.00 0.00 74 1016.9
20260905190813 89 337 0.0 2.6 0.00 0.00 0.00 73 1016.6
20260905190312 89 186 0.0 0.0 0.00 0.00 0.00 75 1016.9
20260905185806 89 338 5.2 6.1 0.00 0.00 0.00 77 1016.9
20260905185305 89 314 4.3 6.1 0.00 0.00 0.00 79 1016.9
20260905184800 89 338 8.7 10.4 0.00 0.00 0.00 77 1017.2
20260905184254 89 336 7.0 8.7 0.00 0.00 0.00 77 1017.2
20260905183753 89 338 3.5 4.3 0.00 0.00 0.00 75 1017.6
20260905183249 88 338 2.6 4.3 0.00 0.00 0.00 75 1017.2
20260905182748 88 313 5.2 6.1 0.00 0.00 0.00 78 1017.6
20260905182242 88 320 2.6 4.3 0.00 0.00 0.00 77 1017.2
20260905181737 88 189 0.0 0.0 0.00 0.00 0.00 78 1017.2
20260905181236 88 339 2.6 2.6 0.00 0.00 0.00 78 1017.6
20260905180732 88 339 5.2 6.1 0.00 0.00 0.00 81 1017.6
20260905180226 88 337 0.0 2.6 0.00 0.00 0.00 83 1017.6
20260905175721 87 324 7.8 8.7 0.00 0.00 0.00 80 1017.6
20260905175216 87 338 1.7 2.6 0.00 0.00 0.00 79 1017.9
20260905174711 87 340 1.7 2.6 0.00 0.00 0.00 81 1018.3
20260905174206 86 335 0.9 2.6 0.00 0.00 0.00 80 1018.3
20260905173703 86 335 0.0 0.0 0.00 0.00 0.00 81 1018.3
20260905173158 86 258 0.9 2.6 0.00 0.00 0.00 82 1017.9
20260905172657 86 340 4.3 6.1 0.00 0.00 0.00 83 1018.3
20260905172152 86 329 2.6 4.3 0.00 0.00 0.00 84 1017.9
20260905171647 86 340 0.0 2.6 0.00 0.00 0.00 83 1018.3
20260905171143 85 194 0.0 0.0 0.00 0.00 0.00 84 1018.3
20260905170640 85 331 0.9 2.6 0.00 0.00 0.00 85 1018.3
20260905170135 85 340 0.9 2.6 0.00 0.00 0.00 84 1018.3
20260905165635 84 203 0.0 0.0 0.00 0.00 0.00 83 1018.6
20260905165130 84 335 0.9 2.6 0.00 0.00 0.00 86 1018.6
20260905164625 84 327 1.7 2.6 0.00 0.00 0.00 87 1018.6
20260905164124 84 338 0.0 2.6 0.00 0.00 0.00 86 1018.9
20260905163621 84 341 2.6 4.3 0.00 0.00 0.00 86 1018.9
20260905163117 85 340 5.2 6.1 0.00 0.00 0.00 88 1018.9
20260905162613 85 336 0.9 2.6 0.00 0.00 0.00 88 1018.9
20260905162112 85 339 3.5 4.3 0.00 0.00 0.00 88 1019.3
20260905161612 85 298 0.0 2.6 0.00 0.00 0.00 87 1018.9
20260905161110 85 340 5.2 6.1 0.00 0.00 0.00 87 1019.3
20260905160609 82 340 0.0 0.0 0.00 0.00 0.00 88 1018.9
20260905155558 81 340 0.0 0.0 0.00 0.00 0.00 87 1019.3
20260905155056 80 181 0.0 0.0 0.00 0.00 0.00 88 1019.3
20260905154551 79 182 0.0 0.0 0.00 0.00 0.00 90 1019.6
20260905154047 79 186 0.0 0.0 0.00 0.00 0.00 93 1019.6
20260905153543 78 323 0.0 0.0 0.00 0.00 0.00 95 1019.6
20260905153043 78 242 0.0 0.0 0.00 0.00 0.00 96 1019.6
20260905152537 78 334 1.7 2.6 0.00 0.00 0.00 97 1019.6
20260905152032 78 334 3.5 4.3 0.00 0.00 0.00 98 1019.6
20260905151528 78 330 1.7 2.6 0.00 0.00 0.00 98 1019.6
20260905151023 77 329 0.9 2.6 0.00 0.00 0.00 98 1019.6
20260905150518 77 336 4.3 6.1 0.00 0.00 0.00 98 1019.6
20260905150016 77 339 2.6 4.3 0.00 0.00 0.00 98 1019.6
20260905145509 77 344 0.9 2.6 0.00 0.00 0.00 98 1019.6
20260905145009 77 347 0.9 2.6 0.00 0.00 0.00 98 1019.6
20260905144504 77 346 2.6 4.3 0.00 0.00 0.00 98 1019.3
20260905144003 77 348 3.5 4.3 0.00 0.00 0.00 98 1019.6
20260905143502 77 348 1.7 2.6 0.00 0.00 0.00 98 1019.6
20260905142957 77 342 1.7 2.6 0.00 0.00 0.00 98 1019.6
20260905142456 77 179 0.0 0.0 0.00 0.00 0.00 98 1019.6
20260905141951 76 345 3.5 4.3 0.00 0.00 0.00 98 1019.6
20260905141446 76 187 0.9 2.6 0.00 0.00 0.00 98 1020.0
20260905140942 76 347 4.3 6.1 0.00 0.00 0.00 98 1020.0
20260905140437 76 348 0.0 2.6 0.00 0.00 0.00 98 1019.3
20260905135936 76 348 2.6 4.3 0.00 0.00 0.00 98 1019.6
20260905135432 76 348 1.7 2.6 0.00 0.00 0.00 98 1019.3
20260905134927 76 348 1.7 2.6 0.00 0.00 0.00 98 1019.6
20260905134426 76 348 0.0 2.6 0.00 0.00 0.00 98 1019.6
20260905133921 76 346 1.7 4.3 0.00 0.00 0.00 98 1019.3
20260905133421 76 345 3.5 4.3 0.00 0.00 0.00 98 1019.6
20260905132920 76 348 3.5 4.3 0.00 0.00 0.00 98 1019.6
20260905132416 75 347 2.6 2.6 0.00 0.00 0.00 98 1019.3